Regional Weather Roundup
Issued by NWS Spokane, WA

Home | Current Version | Previous Version | Text Only | Print | Product List | Glossary On
Versions: 1 2 3 4 5 6 7 8 9 10 11 12 13 14 15 16 17 18 19 20 21 22 23 24 25 26 27 28 29 30 31 32 33 34 35 36 37 38 39 40 41 42 43 44 45 46 47 48 49 50
286
NZUS01 KOTX 211910
RWROTX

Eastern Washington/Northern Idaho Roundup
National Weather Service, Spokane WA
1200 PM PDT TUE MAY 21 2019

Note: "fair" indicated few or no clouds below 12,000 feet with no
significant weather and/or obstructions to visibility.

...Northeast Washington and Northern Idaho Panhandle...

CITY           SKY/WX    TMP DP  RH WIND       PRES   REMARKS
Spokane Intl   PTSUNNY   61  35  37 NE14G21   29.65S
Spokane Downto FAIR      65  38  36 N6        29.64F
Coeur d Alene  PTSUNNY   63  38  39 NE13      29.64F
Deer Park      CLOUDY    63  36  36 NE9       29.66S
Sandpoint      CLOUDY    63  34  34 N21G29    29.67S
Bonners Ferry  CLOUDY    57  37  47 N8        29.72S

...Southeast Washington and southern Idaho Panhandle...

CITY           SKY/WX    TMP DP  RH WIND       PRES   REMARKS
Walla Walla    LGT RAIN  52  43  71 S10       29.70R
Pullman/Moscow CLOUDY    48  44  86 W8        29.69R
Lewiston       CLOUDY    54  43  66 NW13      29.67R
Lowell           N/A     63  46  54 S9G17     29.56F
Grangeville    CLOUDY    46  43  87 NW9       29.64R

...Columbia Basin...

CITY           SKY/WX    TMP DP  RH WIND       PRES   REMARKS
Ephrata        PTSUNNY   68  33  27 MISG      29.65S
Moses Lake     PTSUNNY   69  36  29 VRB7G16   29.65S
Pasco          LGT RAIN  57  49  74 S13       29.69R
Richland       CLOUDY    59  49  68 S9        29.68R
Hermiston      LGT RAIN  55  47  74 SW3       29.69S
Pendleton      CLOUDY    52  43  71 CALM      29.69R

...East Slopes Cascades...

CITY           SKY/WX    TMP DP  RH WIND       PRES   REMARKS
The Dalles     FAIR      61  44  53 NW9       29.68F
Yakima         FAIR      62  41  46 W6        29.66S
Ellensburg     PTSUNNY   64  36  35 W6        29.65S
Stampede Pass  FAIR      49  42  77 CALM      29.70S
Wenatchee      CLOUDY    63  34  33 S7        29.65S
Winthrop       CLOUDY    62  35  37 N3        29.68R
Omak           FAIR      65  35  33 N16G22    29.69R
Sunnyside      FAIR      59  47  66 CALM      29.67S

...Southern British Columbia...

CITY           SKY/WX    TMP DP  RH WIND       PRES   REMARKS
Penticton      CLOUDY    63  36  36 N10       29.72R
Castlegar      PTSUNNY   59  37  44 N7        29.71F
Cranbrook      PTSUNNY   59  36  41 NE7       29.78S
Osoyoos          N/A     64  34  32 NW5         N/A
Creston          N/A     59  34  38 NE6         N/A

...Western Montana...

CITY           SKY/WX    TMP DP  RH WIND       PRES   REMARKS
Kalispell      MOCLDY    60  33  36 N13       29.70S
Libby            N/A     57  37  47 SW7       29.70
Missoula       FAIR      60  37  42 SE18      29.66S

...Neighboring Cities...

CITY           SKY/WX    TMP DP  RH WIND       PRES   REMARKS
Seattle        PTSUNNY   57  47  69 NW7       29.75S
Portland       PTSUNNY   61  48  62 NW8       29.71R
Boise          PTSUNNY   53  39  59 W6        29.65F
Great Falls    CLOUDY    46  40  79 NE17      29.79R
Calgary        CLOUDY    43  39  87 E9        29.94R



USA.gov is the U.S. government's official web portal to all federal, state and local government web resources and services.